Matala Airport

Jump to: basic info | weather | runways | comments

Related pages: nearby airports | nearby navaids | notams | map

Basic information (top)

Codes: FN18
Location: lon -14.727500, lat 15.014000, elev 4,120 ft / 1,256 m msl
Status: small_airport

Weather (top)

Current conditions for Lubango Airport 84nm (156km) W (rec'd 2014/12/18 11:00Z):

FNUB 181100Z 07010KT 9999 SCT025 FEW040TCU 25/// Q1024

Airport forecast for Lubango Airport 84nm (156km) W (rec'd 2014/12/17 12:00Z):

TAF FNUB 171200Z 1712/1724 02010KT 9999 FEW030 
      BECMG 1712/1714 27010KT FEW020 SCT025 PROB30 
      TEMPO 1714/1720 CAVOK 
      BECMG 1718/1720 VRB03KT SCT015

Runways (top)

10/28: 8,015 x 98 ft (2,443 x 30 m) — paved — not lighted

Latest comments (top)

No comments yet for Matala Airport

More... (top)

See also NOTAMs and nearby airports and navaids, or visit the Matala Airport page at the main OurAirports website..